Year,Month,Day,Hour,Minute,Value (Times are PST for temperature in C)
2016,02,21,00,00,5.20
2016,02,21,00,01,5.10
2016,02,21,00,02,5.10
2016,02,21,00,03,5.10
2016,02,21,00,04,5.10
2016,02,21,00,05,5.10
2016,02,21,00,06,5.00
2016,02,21,00,07,5.00
2016,02,21,00,08,5.00
2016,02,21,00,09,5.00
2016,02,21,00,10,5.00
2016,02,21,00,11,5.00
2016,02,21,00,12,5.00
2016,02,21,00,13,5.00
2016,02,21,00,15,5.00
2016,02,21,00,16,5.00
2016,02,21,00,17,5.00
2016,02,21,00,18,4.90
2016,02,21,00,20,4.90
2016,02,21,00,21,4.90
2016,02,21,00,22,4.90
2016,02,21,00,23,4.90
2016,02,21,00,25,5.00
2016,02,21,00,26,5.00
2016,02,21,00,27,5.00
2016,02,21,00,28,5.00
2016,02,21,00,29,5.00
2016,02,21,00,30,5.00
2016,02,21,00,31,4.90
2016,02,21,00,32,4.90
2016,02,21,00,33,4.90
2016,02,21,00,34,4.90
2016,02,21,00,35,4.90
2016,02,21,00,36,4.90
2016,02,21,00,37,4.90
2016,02,21,00,38,4.90
2016,02,21,00,39,4.90
2016,02,21,00,40,4.90
2016,02,21,00,41,4.90
2016,02,21,00,42,4.90
2016,02,21,00,44,4.90
2016,02,21,00,45,4.90
2016,02,21,00,46,4.90
2016,02,21,00,47,4.90
2016,02,21,00,48,4.90
2016,02,21,00,49,4.90
2016,02,21,00,50,4.90
2016,02,21,00,51,4.90
2016,02,21,00,52,4.90
2016,02,21,00,53,5.00
2016,02,21,00,54,5.00
2016,02,21,00,55,5.00
2016,02,21,00,56,5.00
2016,02,21,00,57,5.00
2016,02,21,00,58,5.00
2016,02,21,00,59,5.00
2016,02,21,01,00,5.00
2016,02,21,01,01,5.00
2016,02,21,01,02,5.00
2016,02,21,01,03,5.00
2016,02,21,01,04,5.00
2016,02,21,01,05,5.00
2016,02,21,01,06,5.00
2016,02,21,01,07,5.00
2016,02,21,01,08,5.00
2016,02,21,01,09,5.00
2016,02,21,01,11,5.00
2016,02,21,01,12,5.00
2016,02,21,01,13,5.00
2016,02,21,01,14,5.00
2016,02,21,01,16,5.00
2016,02,21,01,17,5.00
2016,02,21,01,18,5.00
2016,02,21,01,19,5.00
2016,02,21,01,20,5.00
2016,02,21,01,21,4.90
2016,02,21,01,22,4.90
2016,02,21,01,23,4.90
2016,02,21,01,24,4.90
2016,02,21,01,25,4.90
2016,02,21,01,26,4.90
2016,02,21,01,27,4.90
2016,02,21,01,28,4.90
2016,02,21,01,29,4.80
2016,02,21,01,30,4.80
2016,02,21,01,31,4.80
2016,02,21,01,32,4.80
2016,02,21,01,33,4.80
2016,02,21,01,34,4.80
2016,02,21,01,35,4.80
2016,02,21,01,36,4.80
2016,02,21,01,37,4.80
2016,02,21,01,38,4.80
2016,02,21,01,39,4.80
2016,02,21,01,40,4.80
2016,02,21,01,41,4.80
2016,02,21,01,42,4.80
2016,02,21,01,43,4.70
2016,02,21,01,44,4.70
2016,02,21,01,45,4.70
2016,02,21,01,46,4.70
2016,02,21,01,47,4.70
2016,02,21,01,48,4.70
2016,02,21,01,49,4.70
2016,02,21,01,50,4.70
2016,02,21,01,51,4.60
2016,02,21,01,52,4.60
2016,02,21,01,53,4.60
2016,02,21,01,54,4.60
2016,02,21,01,55,4.70
2016,02,21,01,56,4.70
2016,02,21,01,57,4.70
2016,02,21,01,58,4.70
2016,02,21,01,59,4.70
2016,02,21,02,00,4.70
2016,02,21,02,01,4.70
2016,02,21,02,02,4.70
2016,02,21,02,03,4.70
2016,02,21,02,04,4.70
2016,02,21,02,05,4.70
2016,02,21,02,06,4.70
2016,02,21,02,07,4.80
2016,02,21,02,08,4.80
2016,02,21,02,09,4.80
2016,02,21,02,10,4.80
2016,02,21,02,11,4.80
2016,02,21,02,12,4.80
2016,02,21,02,13,4.80
2016,02,21,02,14,4.80
2016,02,21,02,15,4.80
2016,02,21,02,16,4.80
2016,02,21,02,17,4.80
2016,02,21,02,18,4.80
2016,02,21,02,19,4.80
2016,02,21,02,20,4.80
2016,02,21,02,21,4.80
2016,02,21,02,22,4.80
2016,02,21,02,23,4.80
2016,02,21,02,24,4.80
2016,02,21,02,25,4.80
2016,02,21,02,26,4.80
2016,02,21,02,27,4.80
2016,02,21,02,28,4.80
2016,02,21,02,29,4.80
2016,02,21,02,30,4.80
2016,02,21,02,31,4.80
2016,02,21,02,32,4.80
2016,02,21,02,33,4.80
2016,02,21,02,34,4.80
2016,02,21,02,35,4.80
2016,02,21,02,36,4.80
2016,02,21,02,37,4.80
2016,02,21,02,38,4.80
2016,02,21,02,39,4.80
2016,02,21,02,40,4.80
2016,02,21,02,41,4.80
2016,02,21,02,42,4.80
2016,02,21,02,43,4.80
2016,02,21,02,44,4.80
2016,02,21,02,45,4.80
2016,02,21,02,46,4.80
2016,02,21,02,47,4.80
2016,02,21,02,48,4.80
2016,02,21,02,49,4.80
2016,02,21,02,50,4.80
2016,02,21,02,51,4.80
2016,02,21,02,52,4.70
2016,02,21,02,53,4.70
2016,02,21,02,54,4.70
2016,02,21,02,55,4.70
2016,02,21,02,56,4.60
2016,02,21,02,57,4.60
2016,02,21,02,58,4.60
2016,02,21,02,59,4.60
2016,02,21,03,00,4.60
2016,02,21,03,01,4.60
2016,02,21,03,02,4.60
2016,02,21,03,03,4.60
2016,02,21,03,04,4.60
2016,02,21,03,05,4.40
2016,02,21,03,06,4.40
2016,02,21,03,07,4.40
2016,02,21,03,08,4.40
2016,02,21,03,09,4.40
2016,02,21,03,10,4.40
2016,02,21,03,11,4.40
2016,02,21,03,12,4.40
2016,02,21,03,13,4.40
2016,02,21,03,14,4.40
2016,02,21,03,15,4.40
2016,02,21,03,16,4.40
2016,02,21,03,17,4.60
2016,02,21,03,18,4.60
2016,02,21,03,19,4.60
2016,02,21,03,20,4.60
2016,02,21,03,21,4.60
2016,02,21,03,22,4.40
2016,02,21,03,23,4.40
2016,02,21,03,24,4.40
2016,02,21,03,25,4.40
2016,02,21,03,26,4.40
2016,02,21,03,27,4.40
2016,02,21,03,28,4.40
2016,02,21,03,30,4.40
2016,02,21,03,31,4.40
2016,02,21,03,33,4.40
2016,02,21,03,35,4.40
2016,02,21,03,36,4.40
2016,02,21,03,38,4.40
2016,02,21,03,40,4.40
2016,02,21,03,41,4.40
2016,02,21,03,42,4.40
2016,02,21,03,43,4.40
2016,02,21,03,45,4.40
2016,02,21,03,46,4.40
2016,02,21,03,47,4.40
2016,02,21,03,48,4.40
2016,02,21,03,50,4.40
2016,02,21,03,51,4.40
2016,02,21,03,52,4.40
2016,02,21,03,53,4.40
2016,02,21,03,54,4.40
2016,02,21,03,55,4.40
2016,02,21,03,57,4.40
2016,02,21,03,58,4.40
2016,02,21,03,59,4.40
2016,02,21,04,00,4.40
2016,02,21,04,01,4.40
2016,02,21,04,02,4.40
2016,02,21,04,04,4.40
2016,02,21,04,05,4.40
2016,02,21,04,06,4.40
2016,02,21,04,07,4.40
2016,02,21,04,08,4.40
2016,02,21,04,09,4.40
2016,02,21,04,11,4.40
2016,02,21,04,12,4.40
2016,02,21,04,13,4.40
2016,02,21,04,14,4.40
2016,02,21,04,16,4.40
2016,02,21,04,17,4.40
2016,02,21,04,18,4.40
2016,02,21,04,19,4.40
2016,02,21,04,21,4.40
2016,02,21,04,22,4.40
2016,02,21,04,23,4.40
2016,02,21,04,24,4.40
2016,02,21,04,25,4.40
2016,02,21,04,26,4.40
2016,02,21,04,28,4.40
2016,02,21,04,29,4.40
2016,02,21,04,30,4.30
2016,02,21,04,31,4.30
2016,02,21,04,33,4.30
2016,02,21,04,34,4.30
2016,02,21,04,35,4.30
2016,02,21,04,36,4.40
2016,02,21,04,37,4.40
2016,02,21,04,38,4.40
2016,02,21,04,39,4.40
2016,02,21,04,40,4.40
2016,02,21,04,41,4.40
2016,02,21,04,42,4.40
2016,02,21,04,43,4.40
2016,02,21,04,45,4.40
2016,02,21,04,46,4.60
2016,02,21,04,47,4.60
2016,02,21,04,48,4.60
2016,02,21,04,49,4.60
2016,02,21,04,50,4.60
2016,02,21,04,51,4.60
2016,02,21,04,52,4.60
2016,02,21,04,53,4.60
2016,02,21,04,54,4.60
2016,02,21,04,55,4.60
2016,02,21,04,57,4.60
2016,02,21,04,58,4.60
2016,02,21,04,59,4.60
2016,02,21,05,00,4.60
2016,02,21,05,02,4.60
2016,02,21,05,03,4.60
2016,02,21,05,04,4.60
2016,02,21,05,05,4.60
2016,02,21,05,07,4.60
2016,02,21,05,08,4.60
2016,02,21,05,09,4.60
2016,02,21,05,10,4.60
2016,02,21,05,11,4.60
2016,02,21,05,12,4.60
2016,02,21,05,13,4.60
2016,02,21,05,14,4.60
2016,02,21,05,15,4.60
2016,02,21,05,16,4.60
2016,02,21,05,17,4.60
2016,02,21,05,18,4.60
2016,02,21,05,19,4.60
2016,02,21,05,20,4.40
2016,02,21,05,21,4.40
2016,02,21,05,22,4.40
2016,02,21,05,23,4.40
2016,02,21,05,24,4.40
2016,02,21,05,25,4.40
2016,02,21,05,26,4.40
2016,02,21,05,27,4.40
2016,02,21,05,28,4.40
2016,02,21,05,29,4.40
2016,02,21,05,30,4.40
2016,02,21,05,31,4.40
2016,02,21,05,32,4.40
2016,02,21,05,33,4.40
2016,02,21,05,34,4.40
2016,02,21,05,35,4.40
2016,02,21,05,36,4.40
2016,02,21,05,37,4.30
2016,02,21,05,38,4.30
2016,02,21,05,39,4.30
2016,02,21,05,40,4.30
2016,02,21,05,41,4.30
2016,02,21,05,42,4.30
2016,02,21,05,43,4.30
2016,02,21,05,44,4.30
2016,02,21,05,45,4.20
2016,02,21,05,46,4.20
2016,02,21,05,47,4.20
2016,02,21,05,48,4.20
2016,02,21,05,49,4.20
2016,02,21,05,50,4.20
2016,02,21,05,51,4.20
2016,02,21,05,52,4.20
2016,02,21,05,53,4.20
2016,02,21,05,54,4.20
2016,02,21,05,55,4.20
2016,02,21,05,56,4.20
2016,02,21,05,57,4.20
2016,02,21,05,58,4.20
2016,02,21,05,59,4.20
2016,02,21,06,00,4.20
2016,02,21,06,01,4.30
2016,02,21,06,02,4.30
2016,02,21,06,03,4.30
2016,02,21,06,04,4.30
2016,02,21,06,05,4.30
2016,02,21,06,06,4.30
2016,02,21,06,07,4.30
2016,02,21,06,08,4.30
2016,02,21,06,09,4.30
2016,02,21,06,10,4.30
2016,02,21,06,12,4.30
2016,02,21,06,13,4.30
2016,02,21,06,14,4.30
2016,02,21,06,15,4.30
2016,02,21,06,16,4.30
2016,02,21,06,17,4.30
2016,02,21,06,18,4.30
2016,02,21,06,19,4.30
2016,02,21,06,20,4.30
2016,02,21,06,21,4.30
2016,02,21,06,22,4.30
2016,02,21,06,23,4.30
2016,02,21,06,24,4.30
2016,02,21,06,25,4.30
2016,02,21,06,26,4.30
2016,02,21,06,27,4.30
2016,02,21,06,28,4.30
2016,02,21,06,29,4.30
2016,02,21,06,30,4.30
2016,02,21,06,31,4.30
2016,02,21,06,32,4.30
2016,02,21,06,33,4.30
2016,02,21,06,34,4.30
2016,02,21,06,35,4.30
2016,02,21,06,36,4.30
2016,02,21,06,37,4.30
2016,02,21,06,38,4.30
2016,02,21,06,39,4.30
2016,02,21,06,40,4.30
2016,02,21,06,41,4.30
2016,02,21,06,42,4.30
2016,02,21,06,43,4.30
2016,02,21,06,44,4.30
2016,02,21,06,45,4.30
2016,02,21,06,46,4.30
2016,02,21,06,47,4.30
2016,02,21,06,48,4.30
2016,02,21,06,49,4.30
2016,02,21,06,50,4.20
2016,02,21,06,51,4.20
2016,02,21,06,52,4.20
2016,02,21,06,53,4.20
2016,02,21,06,54,4.20
2016,02,21,06,55,4.20
2016,02,21,06,56,4.20
2016,02,21,06,57,4.20
2016,02,21,06,58,4.20
2016,02,21,06,59,4.20
2016,02,21,07,00,4.20
2016,02,21,07,01,4.20
2016,02,21,07,02,4.10
2016,02,21,07,03,4.10
2016,02,21,07,04,4.10
2016,02,21,07,05,4.10
2016,02,21,07,06,4.10
2016,02,21,07,07,4.10
2016,02,21,07,08,4.10
2016,02,21,07,09,4.10
2016,02,21,07,10,4.10
2016,02,21,07,11,4.10
2016,02,21,07,12,4.10
2016,02,21,07,13,4.10
2016,02,21,07,14,4.10
2016,02,21,07,15,4.10
2016,02,21,07,16,4.10
2016,02,21,07,17,4.10
2016,02,21,07,18,4.10
2016,02,21,07,19,4.10
2016,02,21,07,20,4.10
2016,02,21,07,21,4.10
2016,02,21,07,22,4.10
2016,02,21,07,23,4.10
2016,02,21,07,24,4.10
2016,02,21,07,25,4.10
2016,02,21,07,26,4.10
2016,02,21,07,27,4.10
2016,02,21,07,28,4.10
2016,02,21,07,29,4.10
2016,02,21,07,30,4.10
2016,02,21,07,31,4.10
2016,02,21,07,32,4.10
2016,02,21,07,33,4.10
2016,02,21,07,34,4.10
2016,02,21,07,35,4.10
2016,02,21,07,36,4.10
2016,02,21,07,37,4.20
2016,02,21,07,38,4.20
2016,02,21,07,39,4.10
2016,02,21,07,40,4.10
2016,02,21,07,41,4.10
2016,02,21,07,42,4.20
2016,02,21,07,43,4.20
2016,02,21,07,44,4.20
2016,02,21,07,45,4.20
2016,02,21,07,46,4.20
2016,02,21,07,47,4.20
2016,02,21,07,48,4.20
2016,02,21,07,49,4.20
2016,02,21,07,50,4.20
2016,02,21,07,51,4.20
2016,02,21,07,52,4.20
2016,02,21,07,53,4.20
2016,02,21,07,54,4.20
2016,02,21,07,55,4.20
2016,02,21,07,56,4.20
2016,02,21,07,57,4.20
2016,02,21,07,58,4.20
2016,02,21,07,59,4.20
2016,02,21,08,00,4.20
2016,02,21,08,01,4.20
2016,02,21,08,02,4.20
2016,02,21,08,04,4.20
2016,02,21,08,06,4.20
2016,02,21,08,07,4.30
2016,02,21,08,08,4.30
2016,02,21,08,09,4.30
2016,02,21,08,11,4.30
2016,02,21,08,12,4.30
2016,02,21,08,13,4.40
2016,02,21,08,14,4.40
2016,02,21,08,16,4.40
2016,02,21,08,18,4.40
2016,02,21,08,19,4.40
2016,02,21,08,20,4.40
2016,02,21,08,21,4.40
2016,02,21,08,23,4.60
2016,02,21,08,24,4.60
2016,02,21,08,25,4.60
2016,02,21,08,26,4.60
2016,02,21,08,27,4.60
2016,02,21,08,28,4.60
2016,02,21,08,30,4.70
2016,02,21,08,31,4.70
2016,02,21,08,32,4.70
2016,02,21,08,33,4.80
2016,02,21,08,35,4.80
2016,02,21,08,36,4.80
2016,02,21,08,37,4.80
2016,02,21,08,38,4.80
2016,02,21,08,40,4.80
2016,02,21,08,41,4.80
2016,02,21,08,42,4.80
2016,02,21,08,43,4.80
2016,02,21,08,45,4.90
2016,02,21,08,46,4.90
2016,02,21,08,47,4.90
2016,02,21,08,48,4.90
2016,02,21,08,50,4.90
2016,02,21,08,52,4.90
2016,02,21,08,53,5.00
2016,02,21,08,54,5.00
2016,02,21,08,55,5.00
2016,02,21,08,57,5.00
2016,02,21,08,58,5.00
2016,02,21,08,59,5.00
2016,02,21,09,00,5.00
2016,02,21,09,02,5.00
2016,02,21,09,03,5.00
2016,02,21,09,04,5.10
2016,02,21,09,05,5.10
2016,02,21,09,07,5.10
2016,02,21,09,08,5.10
2016,02,21,09,09,5.10
2016,02,21,09,10,5.20
2016,02,21,09,12,5.20
2016,02,21,09,13,5.20
2016,02,21,09,14,5.20
2016,02,21,09,15,5.20
2016,02,21,09,17,5.20
2016,02,21,09,18,5.20
2016,02,21,09,19,5.20
2016,02,21,09,20,5.20
2016,02,21,09,21,5.20
2016,02,21,09,22,5.20
2016,02,21,09,24,5.20
2016,02,21,09,25,5.20
2016,02,21,09,26,5.20
2016,02,21,09,27,5.20
2016,02,21,09,28,5.30
2016,02,21,09,29,5.30
2016,02,21,09,30,5.30
2016,02,21,09,31,5.30
2016,02,21,09,33,5.40
2016,02,21,09,34,5.40
2016,02,21,09,35,5.40
2016,02,21,09,36,5.40
2016,02,21,09,38,5.50
2016,02,21,09,39,5.50
2016,02,21,09,40,5.60
2016,02,21,09,41,5.60
2016,02,21,09,43,5.70
2016,02,21,09,44,5.70
2016,02,21,09,45,5.70
2016,02,21,09,46,5.70
2016,02,21,09,48,5.70
2016,02,21,09,49,5.80
2016,02,21,09,50,5.80
2016,02,21,09,51,5.80
2016,02,21,09,52,5.80
2016,02,21,09,53,5.90
2016,02,21,09,55,5.90
2016,02,21,09,56,5.90
2016,02,21,09,57,5.90
2016,02,21,09,58,5.90
2016,02,21,09,59,5.90
2016,02,21,10,00,5.90
2016,02,21,10,01,5.90
2016,02,21,10,02,6.10
2016,02,21,10,03,6.10
2016,02,21,10,04,6.10
2016,02,21,10,06,6.10
2016,02,21,10,07,6.10
2016,02,21,10,08,6.10
2016,02,21,10,09,6.10
2016,02,21,10,11,6.20
2016,02,21,10,12,6.20
2016,02,21,10,13,6.20
2016,02,21,10,14,6.30
2016,02,21,10,15,6.30
2016,02,21,10,16,6.30
2016,02,21,10,18,6.30
2016,02,21,10,19,6.30
2016,02,21,10,20,6.30
2016,02,21,10,21,6.30
2016,02,21,10,23,6.30
2016,02,21,10,24,6.30
2016,02,21,10,25,6.30
2016,02,21,10,26,6.30
2016,02,21,10,27,6.30
2016,02,21,10,28,6.30
2016,02,21,10,30,6.30
2016,02,21,10,31,6.30
2016,02,21,10,32,6.30
2016,02,21,10,33,6.40
2016,02,21,10,35,6.40
2016,02,21,10,36,6.40
2016,02,21,10,37,6.40
2016,02,21,10,38,6.40
2016,02,21,10,39,6.40
2016,02,21,10,40,6.40
2016,02,21,10,41,6.40
2016,02,21,10,42,6.40
2016,02,21,10,43,6.40
2016,02,21,10,44,6.40
2016,02,21,10,45,6.40
2016,02,21,10,46,6.40
2016,02,21,10,47,6.40
2016,02,21,10,48,6.40
2016,02,21,10,49,6.40
2016,02,21,10,50,6.30
2016,02,21,10,51,6.30
2016,02,21,10,52,6.30
2016,02,21,10,53,6.30
2016,02,21,10,54,6.30
2016,02,21,10,55,6.30
2016,02,21,10,56,6.30
2016,02,21,10,57,6.30
2016,02,21,10,58,6.30
2016,02,21,10,59,6.30
2016,02,21,11,00,6.30
2016,02,21,11,01,6.30
2016,02,21,11,02,6.30
2016,02,21,11,03,6.30
2016,02,21,11,04,6.30
2016,02,21,11,05,6.30
2016,02,21,11,06,6.30
2016,02,21,11,07,6.30
2016,02,21,11,08,6.30
2016,02,21,11,09,6.30
2016,02,21,11,10,6.30
2016,02,21,11,11,6.30
2016,02,21,11,12,6.30
2016,02,21,11,13,6.30
2016,02,21,11,14,6.30
2016,02,21,11,15,6.30
2016,02,21,11,16,6.30
2016,02,21,11,17,6.30
2016,02,21,11,18,6.30
2016,02,21,11,19,6.30
2016,02,21,11,20,6.20
2016,02,21,11,21,6.20
2016,02,21,11,22,6.20
2016,02,21,11,23,6.20
2016,02,21,11,24,6.20
2016,02,21,11,25,6.20
2016,02,21,11,26,6.20
2016,02,21,11,27,6.20
2016,02,21,11,28,6.20
2016,02,21,11,29,6.20
2016,02,21,11,30,6.30
2016,02,21,11,31,6.30
2016,02,21,11,32,6.30
2016,02,21,11,33,6.30
2016,02,21,11,34,6.30
2016,02,21,11,35,6.30
2016,02,21,11,36,6.30
2016,02,21,11,37,6.30
2016,02,21,11,38,6.30
2016,02,21,11,39,6.30
2016,02,21,11,40,6.30
2016,02,21,11,41,6.30
2016,02,21,11,42,6.30
2016,02,21,11,43,6.30
2016,02,21,11,44,6.30
2016,02,21,11,45,6.30
2016,02,21,11,46,6.30
2016,02,21,11,47,6.30
2016,02,21,11,48,6.30
2016,02,21,11,49,6.30
2016,02,21,11,50,6.30
2016,02,21,11,51,6.30
2016,02,21,11,52,6.30
2016,02,21,11,53,6.30
2016,02,21,11,54,6.30
2016,02,21,11,55,6.30
2016,02,21,11,56,6.30
2016,02,21,11,57,6.30
2016,02,21,11,58,6.30
2016,02,21,11,59,6.30
2016,02,21,12,00,6.30
2016,02,21,12,01,6.30
2016,02,21,12,02,6.30
2016,02,21,12,03,6.30
2016,02,21,12,04,6.30
2016,02,21,12,05,6.30
2016,02,21,12,06,6.30
2016,02,21,12,07,6.30
2016,02,21,12,08,6.30
2016,02,21,12,09,6.30
2016,02,21,12,10,6.30
2016,02,21,12,11,6.30
2016,02,21,12,12,6.30
2016,02,21,12,13,6.30
2016,02,21,12,14,6.40
2016,02,21,12,15,6.40
2016,02,21,12,16,6.40
2016,02,21,12,17,6.40
2016,02,21,12,18,6.40
2016,02,21,12,19,6.40
2016,02,21,12,20,6.40
2016,02,21,12,21,6.50
2016,02,21,12,22,6.50
2016,02,21,12,23,6.50
2016,02,21,12,24,6.60
2016,02,21,12,25,6.60
2016,02,21,12,26,6.60
2016,02,21,12,27,6.70
2016,02,21,12,28,6.70
2016,02,21,12,29,6.70
2016,02,21,12,30,6.70
2016,02,21,12,31,6.80
2016,02,21,12,32,6.80
2016,02,21,12,33,6.80
2016,02,21,12,34,6.80
2016,02,21,12,35,6.80
2016,02,21,12,36,6.80
2016,02,21,12,37,6.80
2016,02,21,12,38,6.80
2016,02,21,12,39,6.80
2016,02,21,12,40,6.80
2016,02,21,12,41,6.90
2016,02,21,12,42,6.90
2016,02,21,12,43,6.90
2016,02,21,12,44,6.90
2016,02,21,12,45,6.90
2016,02,21,12,46,6.90
2016,02,21,12,47,7.00
2016,02,21,12,48,7.00
2016,02,21,12,49,7.00
2016,02,21,12,50,7.00
2016,02,21,12,51,7.00
2016,02,21,12,52,7.00
2016,02,21,12,53,7.00
2016,02,21,12,54,7.10
2016,02,21,12,55,7.10
2016,02,21,12,56,7.10
2016,02,21,12,58,7.10
2016,02,21,13,00,7.10
2016,02,21,13,02,7.10
2016,02,21,13,03,7.10
2016,02,21,13,04,7.10
2016,02,21,13,05,7.10
2016,02,21,13,07,7.20
2016,02,21,13,08,7.20
2016,02,21,13,09,7.20
2016,02,21,13,10,7.20
2016,02,21,13,11,7.20
2016,02,21,13,12,7.20
2016,02,21,13,14,7.30
2016,02,21,13,16,7.30
2016,02,21,13,17,7.30
2016,02,21,13,18,7.30
2016,02,21,13,19,7.30
2016,02,21,13,21,7.30
2016,02,21,13,22,7.30
2016,02,21,13,23,7.20
2016,02,21,13,24,7.20
2016,02,21,13,25,7.20
2016,02,21,13,26,7.20
2016,02,21,13,28,7.10
2016,02,21,13,29,7.10
2016,02,21,13,30,7.10
2016,02,21,13,31,7.00
2016,02,21,13,33,7.00
2016,02,21,13,34,7.00
2016,02,21,13,35,7.00
2016,02,21,13,36,6.90
2016,02,21,13,38,6.90
2016,02,21,13,39,6.90
2016,02,21,13,41,6.80
2016,02,21,13,42,6.80
2016,02,21,13,43,6.80
2016,02,21,13,44,6.80
2016,02,21,13,46,6.80
2016,02,21,13,48,6.80
2016,02,21,13,49,6.80
2016,02,21,13,50,6.80
2016,02,21,13,51,6.80
2016,02,21,13,53,6.70
2016,02,21,13,54,6.70
2016,02,21,13,55,6.70
2016,02,21,13,56,6.70
2016,02,21,13,58,6.70
2016,02,21,13,59,6.70
2016,02,21,14,00,6.70
2016,02,21,14,01,6.70
2016,02,21,14,02,6.70
2016,02,21,14,03,6.70
2016,02,21,14,05,6.70
2016,02,21,14,06,6.70
2016,02,21,14,07,6.70
2016,02,21,14,08,6.70
2016,02,21,14,10,6.70
2016,02,21,14,11,6.70
2016,02,21,14,12,6.70
2016,02,21,14,13,6.70
2016,02,21,14,15,6.70
2016,02,21,14,16,6.80
2016,02,21,14,17,6.80
2016,02,21,14,18,6.80
2016,02,21,14,20,6.80
2016,02,21,14,21,6.80
2016,02,21,14,22,6.90
2016,02,21,14,23,7.00
2016,02,21,14,24,7.00
2016,02,21,14,25,7.10
2016,02,21,14,27,7.20
2016,02,21,14,28,7.20
2016,02,21,14,29,7.20
2016,02,21,14,30,7.30
2016,02,21,14,32,7.40
2016,02,21,14,33,7.50
2016,02,21,14,34,7.50
2016,02,21,14,35,7.60
2016,02,21,14,36,7.60
2016,02,21,14,37,7.70
2016,02,21,14,38,7.70
2016,02,21,14,39,7.70
2016,02,21,14,40,7.70
2016,02,21,14,41,7.70
2016,02,21,14,42,7.80
2016,02,21,14,43,7.80
2016,02,21,14,44,7.90
2016,02,21,14,45,7.90
2016,02,21,14,46,7.90
2016,02,21,14,47,7.90
2016,02,21,14,49,8.10
2016,02,21,14,50,8.10
2016,02,21,14,51,8.10
2016,02,21,14,52,8.10
2016,02,21,14,54,8.20
2016,02,21,14,55,8.20
2016,02,21,14,56,8.20
2016,02,21,14,57,8.20
2016,02,21,14,59,8.20
2016,02,21,15,00,8.20
2016,02,21,15,01,8.20
2016,02,21,15,02,8.30
2016,02,21,15,03,8.40
2016,02,21,15,04,8.40
2016,02,21,15,05,8.40
2016,02,21,15,06,8.40
2016,02,21,15,07,8.60
2016,02,21,15,08,8.60
2016,02,21,15,09,8.60
2016,02,21,15,10,8.60
2016,02,21,15,11,8.70
2016,02,21,15,12,8.70
2016,02,21,15,13,8.70
2016,02,21,15,14,8.70
2016,02,21,15,15,8.70
2016,02,21,15,16,8.70
2016,02,21,15,17,8.60
2016,02,21,15,18,8.60
2016,02,21,15,19,8.40
2016,02,21,15,20,8.40
2016,02,21,15,21,8.40
2016,02,21,15,22,8.30
2016,02,21,15,23,8.20
2016,02,21,15,24,8.20
2016,02,21,15,25,8.10
2016,02,21,15,26,8.10
2016,02,21,15,27,8.10
2016,02,21,15,28,7.90
2016,02,21,15,29,7.90
2016,02,21,15,30,7.90
2016,02,21,15,31,7.90
2016,02,21,15,32,7.90
2016,02,21,15,33,7.90
2016,02,21,15,34,7.90
2016,02,21,15,35,7.90
2016,02,21,15,36,7.90
2016,02,21,15,37,7.90
2016,02,21,15,38,7.90
2016,02,21,15,39,7.90
2016,02,21,15,40,8.10
2016,02,21,15,41,8.10
2016,02,21,15,42,8.10
2016,02,21,15,43,8.20
2016,02,21,15,44,8.30
2016,02,21,15,45,8.30
2016,02,21,15,46,8.30
2016,02,21,15,47,8.30
2016,02,21,15,48,8.30
2016,02,21,15,49,8.30
2016,02,21,15,50,8.30
2016,02,21,15,51,8.30
2016,02,21,15,52,8.30
2016,02,21,15,53,8.30
2016,02,21,15,54,8.40
2016,02,21,15,55,8.40
2016,02,21,15,56,8.40
2016,02,21,15,57,8.40
2016,02,21,15,58,8.60
2016,02,21,15,59,8.60
2016,02,21,16,00,8.60
2016,02,21,16,01,8.70
2016,02,21,16,02,8.70
2016,02,21,16,03,8.80
2016,02,21,16,04,8.80
2016,02,21,16,05,8.80
2016,02,21,16,06,8.90
2016,02,21,16,07,8.90
2016,02,21,16,08,8.90
2016,02,21,16,09,8.90
2016,02,21,16,10,8.90
2016,02,21,16,11,9.10
2016,02,21,16,12,9.10
2016,02,21,16,13,9.10
2016,02,21,16,14,9.10
2016,02,21,16,15,9.10
2016,02,21,16,16,9.10
2016,02,21,16,17,8.90
2016,02,21,16,18,8.90
2016,02,21,16,19,8.90
2016,02,21,16,20,8.90
2016,02,21,16,21,8.90
2016,02,21,16,22,8.80
2016,02,21,16,23,8.80
2016,02,21,16,24,8.80
2016,02,21,16,25,8.70
2016,02,21,16,26,8.70
2016,02,21,16,27,8.70
2016,02,21,16,28,8.70
2016,02,21,16,29,8.60
2016,02,21,16,30,8.60
2016,02,21,16,31,8.60
2016,02,21,16,32,8.60
2016,02,21,16,33,8.60
2016,02,21,16,34,8.60
2016,02,21,16,35,8.60
2016,02,21,16,36,8.60
2016,02,21,16,37,8.60
2016,02,21,16,38,8.60
2016,02,21,16,39,8.40
2016,02,21,16,40,8.40
2016,02,21,16,41,8.40
2016,02,21,16,42,8.40
2016,02,21,16,43,8.40
2016,02,21,16,44,8.40
2016,02,21,16,45,8.40
2016,02,21,16,46,8.40
2016,02,21,16,47,8.30
2016,02,21,16,48,8.30
2016,02,21,16,49,8.30
2016,02,21,16,50,8.20
2016,02,21,16,51,8.20
2016,02,21,16,52,8.20
2016,02,21,16,53,8.10
2016,02,21,16,54,8.10
2016,02,21,16,55,8.10
2016,02,21,16,56,8.10
2016,02,21,16,57,8.10
2016,02,21,16,58,8.10
2016,02,21,16,59,7.90
2016,02,21,17,00,7.90
2016,02,21,17,01,7.90
2016,02,21,17,02,7.90
2016,02,21,17,03,7.90
2016,02,21,17,04,7.90
2016,02,21,17,05,7.80
2016,02,21,17,06,7.80
2016,02,21,17,07,7.80
2016,02,21,17,08,7.70
2016,02,21,17,09,7.70
2016,02,21,17,10,7.70
2016,02,21,17,11,7.70
2016,02,21,17,12,7.60
2016,02,21,17,13,7.60
2016,02,21,17,14,7.50
2016,02,21,17,15,7.50
2016,02,21,17,16,7.40
2016,02,21,17,17,7.30
2016,02,21,17,18,7.20
2016,02,21,17,19,7.20
2016,02,21,17,20,7.20
2016,02,21,17,21,7.10
2016,02,21,17,22,7.10
2016,02,21,17,23,7.00
2016,02,21,17,24,6.90
2016,02,21,17,25,6.80
2016,02,21,17,26,6.80
2016,02,21,17,27,6.80
2016,02,21,17,28,6.70
2016,02,21,17,29,6.60
2016,02,21,17,30,6.50
2016,02,21,17,31,6.40
2016,02,21,17,32,6.30
2016,02,21,17,33,6.30
2016,02,21,17,34,6.30
2016,02,21,17,35,6.10
2016,02,21,17,36,6.10
2016,02,21,17,37,6.10
2016,02,21,17,38,5.90
2016,02,21,17,39,5.90
2016,02,21,17,40,5.90
2016,02,21,17,41,5.80
2016,02,21,17,42,5.80
2016,02,21,17,43,5.70
2016,02,21,17,44,5.70
2016,02,21,17,45,5.70
2016,02,21,17,46,5.70
2016,02,21,17,47,5.70
2016,02,21,17,48,5.70
2016,02,21,17,50,5.70
2016,02,21,17,51,5.70
2016,02,21,17,53,5.70
2016,02,21,17,55,5.60
2016,02,21,17,56,5.50
2016,02,21,17,57,5.50
2016,02,21,17,58,5.40
2016,02,21,18,00,5.30
2016,02,21,18,01,5.30
2016,02,21,18,02,5.30
2016,02,21,18,03,5.20
2016,02,21,18,05,5.20
2016,02,21,18,06,5.20
2016,02,21,18,07,5.20
2016,02,21,18,08,5.10
2016,02,21,18,10,5.10
2016,02,21,18,12,5.00
2016,02,21,18,13,5.00
2016,02,21,18,15,4.90
2016,02,21,18,17,4.90
2016,02,21,18,18,4.80
2016,02,21,18,20,4.80
2016,02,21,18,22,4.80
2016,02,21,18,23,4.80
2016,02,21,18,24,4.80
2016,02,21,18,25,4.80
2016,02,21,18,27,4.70
2016,02,21,18,28,4.70
2016,02,21,18,29,4.70
2016,02,21,18,30,4.70
2016,02,21,18,32,4.70
2016,02,21,18,33,4.60
2016,02,21,18,34,4.60
2016,02,21,18,35,4.60
2016,02,21,18,36,4.60
2016,02,21,18,37,4.60
2016,02,21,18,39,4.60
2016,02,21,18,40,4.60
2016,02,21,18,41,4.60
2016,02,21,18,42,4.60
2016,02,21,18,43,4.60
2016,02,21,18,44,4.60
2016,02,21,18,46,4.60
2016,02,21,18,47,4.60
2016,02,21,18,48,4.60
2016,02,21,18,49,4.70
2016,02,21,18,51,4.70
2016,02,21,18,52,4.60
2016,02,21,18,53,4.60
2016,02,21,18,54,4.60
2016,02,21,18,55,4.60
2016,02,21,18,56,4.60
2016,02,21,18,58,4.60
2016,02,21,18,59,4.60
2016,02,21,19,00,4.40
2016,02,21,19,01,4.40
2016,02,21,19,03,4.40
2016,02,21,19,04,4.40
2016,02,21,19,05,4.40
2016,02,21,19,06,4.40
2016,02,21,19,08,4.40
2016,02,21,19,09,4.40
2016,02,21,19,10,4.60
2016,02,21,19,11,4.60
2016,02,21,19,13,4.60
2016,02,21,19,14,4.70
2016,02,21,19,15,4.70
2016,02,21,19,16,4.70
2016,02,21,19,17,4.70
2016,02,21,19,18,4.70
2016,02,21,19,20,4.70
2016,02,21,19,21,4.70
2016,02,21,19,22,4.70
2016,02,21,19,23,4.70
2016,02,21,19,24,4.70
2016,02,21,19,25,4.70
2016,02,21,19,26,4.80
2016,02,21,19,27,4.80
2016,02,21,19,28,4.80
2016,02,21,19,29,4.80
2016,02,21,19,30,4.90
2016,02,21,19,32,4.90
2016,02,21,19,33,5.00
2016,02,21,19,34,5.00
2016,02,21,19,35,5.20
2016,02,21,19,37,5.30
2016,02,21,19,38,5.40
2016,02,21,19,39,5.50
2016,02,21,19,40,5.60
2016,02,21,19,42,5.70
2016,02,21,19,43,5.70
2016,02,21,19,44,5.70
2016,02,21,19,45,5.80
2016,02,21,19,47,5.90
2016,02,21,19,48,5.90
2016,02,21,19,49,6.10